[[{"header":{"parameterUnit":"m.s-1","parameterCategory":1,"la1":30.2991,"la2":30.254,"lo1":-89.0895,"lo2":-89.0444,"dy":0.0017,"dx":0.0017,"nx":28,"ny":28,"refTime":"2024-09-27T09:00:00:Z","depth":0,"parameterNumber":2,"parameterNumberName":"U-component_of_WINDS"},"data":[0,0,0,0,0,0,0,0,0,0,0,0,0,0,0,0,0,0,0,0,0,0,0,0,0,0,0,0,0,0,0,0,0,0,0,0,0,0,0,0,0,0,0,0,0,0,0,0,0,0,0,0,0,0,0,0,0,0,5.1285,5.1287,0,5.1475,5.1477,5.1479,5.1386,5.1381,5.1376,5.1371,5.1572,5.1582,5.1592,0,0,0,0,0,0,0,0,0,0,0,0,0,5.0846,5.0855,5.1284,5.1287,5.1289,5.1474,5.1477,5.1479,5.1387,5.1381,5.1375,5.1369,5.1569,5.1581,5.1593,0,0,0,0,0,0,0,0,0,0,0,0,0,5.1037,5.0858,5.1284,5.1265,5.1265,5.1474,5.1477,5.148,5.1388,5.1381,5.1373,5.1366,5.1565,5.158,5.1595,5.1835,0,0,5.164,5.1647,0,0,0,0,0,0,0,0,5.1026,5.1053,5.1266,5.1267,5.1267,5.1399,5.1396,5.1599,5.139,5.1342,5.1371,5.1363,5.1521,5.1539,5.1591,5.1844,5.1853,5.1641,5.165,5.1657,5.1661,0,0,0,0,0,0,0,5.1013,5.1044,5.136,5.1269,5.127,5.1249,5.1268,5.1434,5.1471,5.1345,5.1339,5.1362,5.152,5.1577,5.1595,5.1855,5.1641,5.1654,5.1663,5.1669,5.2313,5.2321,0,0,0,0,0,0,5.1,5.1034,5.1354,5.1365,5.1126,5.1263,5.1284,5.1364,5.1469,5.1477,5.1369,5.1357,5.1555,5.1578,5.1602,5.1888,5.1657,5.1671,5.1679,5.2305,5.2315,5.2324,0,0,0,0,0,0,5.0991,5.1029,5.1346,5.1198,5.1237,5.1278,5.1369,5.1372,5.1428,5.1486,5.1493,5.142,5.155,5.1581,5.1777,5.1894,5.1677,5.1691,5.2295,5.2308,5.2319,5.2464,0,0,0,0,0,0,5.0979,5.1027,5.1117,5.1201,5.1245,5.1517,5.1376,5.1381,5.1454,5.1441,5.1536,5.1544,5.1547,5.1755,5.1791,5.1911,5.1703,5.2285,5.2301,5.2315,5.2449,5.248,5.2506,0,0,0,0,0,5.0963,5.1152,5.1122,5.1161,5.1359,5.1523,5.1549,5.1546,5.1464,5.1555,5.1592,5.1541,5.1875,5.1776,5.1816,5.1942,5.2278,5.2297,5.2314,5.2436,5.2474,5.2505,0,0,0,0,0,0,5.1084,5.1163,5.113,5.1352,5.1431,5.1507,5.1623,5.1586,5.1693,5.1676,5.167,5.1693,5.1895,5.1938,5.1825,5.2179,5.2064,5.2091,5.2143,5.2179,5.2207,5.2192,5.1715,0,0,0,0,0,5.1136,5.1261,5.1324,5.1513,5.1554,5.1582,5.1654,5.1644,5.1728,5.1762,5.1813,5.1897,5.202,5.2102,5.222,5.2455,5.2474,5.2561,5.259,5.2613,5.2637,5.2763,5.2802,5.2384,5.2384,5.2383,0,0,5.1245,5.1304,5.1384,5.1539,5.1599,5.173,5.1611,5.1756,5.1853,5.1784,5.197,5.2011,5.2105,5.2321,5.2419,5.2363,5.2756,5.2636,5.2654,5.2666,5.2786,5.2825,5.2861,5.2396,5.2394,5.2392,0,0,5.1511,5.1568,5.1731,5.1793,5.1885,5.1902,5.1942,5.2023,5.2047,5.2234,5.2184,5.2301,5.2515,5.2583,5.2645,5.2936,5.2893,5.2974,5.3123,5.3247,5.328,5.3309,5.3411,5.3448,5.2998,5.2998,5.2998,0,5.1635,5.1829,5.182,5.1967,5.2037,5.1978,5.2143,5.2205,5.2332,5.2382,5.2318,5.2583,5.2642,5.2872,5.2943,5.2996,5.3041,5.2963,5.3275,5.3304,5.3332,5.3429,5.3468,5.3007,5.3006,5.3005,5.3004,0,5.1977,5.2112,5.2233,5.2354,5.2437,5.2594,5.2609,5.2695,5.2678,5.2703,5.2893,5.2962,5.3091,5.3145,5.3132,5.3374,5.3336,5.3274,5.3159,5.3381,5.3472,5.351,5.302,5.3017,5.3014,5.3012,0,0,5.2325,5.2437,5.2481,5.2534,5.2631,5.2737,5.289,5.3014,5.3087,5.3177,5.3305,5.3487,5.3429,5.35,5.3494,5.3602,5.3826,5.3526,5.3528,5.3579,5.4096,5.4142,5.4185,5.3798,5.3805,5.3811,5.4088,0,5.2596,5.2861,5.2857,5.3104,5.3228,5.3174,5.3308,5.3382,5.3409,5.352,5.355,5.3678,5.3592,5.3635,5.374,5.3777,5.393,5.3757,5.3918,5.3924,5.3895,5.4233,5.4282,5.454,5.4124,5.413,5.4134,0,5.2948,5.3046,5.3304,5.3381,5.3433,5.3553,5.3665,5.3772,5.3856,5.3868,5.3946,5.3923,5.408,5.396,5.4176,5.4058,5.4124,5.4153,5.4162,5.4177,5.4042,5.4256,5.4622,5.4661,5.4191,5.4186,5.4182,0,5.3173,5.3371,5.355,5.3598,5.3693,5.3778,5.3822,5.3898,5.3972,5.4071,5.4119,5.4237,5.4301,5.4393,5.4402,5.4314,5.462,5.4501,5.4634,5.4634,5.47,5.4696,5.5082,5.4745,5.4744,5.4744,5.4743,0,5.3476,5.3636,5.3652,5.3763,5.3941,5.3935,5.4112,5.4148,5.4216,5.4334,5.4295,5.4407,5.4412,5.4527,5.4535,5.4712,5.4742,5.4756,5.4757,5.4759,5.4757,5.4802,5.4784,5.4754,5.4752,5.475,5.4748,0,5.3758,5.3775,5.3967,5.404,5.4062,5.419,5.4253,5.4359,5.4381,5.4531,5.4565,5.4602,5.4734,5.4752,5.4909,5.4914,5.5127,5.5109,5.5098,5.5094,5.5226,5.5213,5.5653,5.571,5.5338,5.5341,5.5344,0,5.3949,5.4071,5.4156,5.423,5.4278,5.44,5.4474,5.4474,5.4553,5.4657,5.4751,5.4879,5.4981,5.5196,5.5238,5.5357,5.5341,5.5487,5.5358,5.5357,5.5341,5.5334,5.5345,5.5511,5.5515,5.5519,5.5521,0,5.4287,5.4289,5.4397,5.4508,5.4598,5.4686,5.4769,5.4833,5.4843,5.4935,5.5069,5.5148,5.5306,5.5434,5.5551,5.5598,5.5562,5.5561,5.5598,5.5602,5.559,5.5597,5.5164,5.5551,5.5548,5.5546,5.5544,5.5543,5.4529,5.4633,5.4709,5.4831,5.4892,5.497,5.5072,5.5107,5.5217,5.5344,5.5338,5.5485,5.5565,5.5718,5.5774,5.589,5.5842,5.5896,5.5909,5.5922,5.5934,5.5572,5.5911,5.591,5.591,5.5909,5.5908,0,5.4863,5.4909,5.502,5.5136,5.5232,5.5187,5.5276,5.536,5.5489,5.5566,5.5667,5.582,5.5944,5.5994,5.6115,5.6199,5.6185,5.6231,5.6224,5.6235,5.5971,5.5926,5.6239,5.6239,5.6239,5.6239,5.6239,5.6239,5.5048,5.5222,5.5233,5.5438,5.5483,5.5624,5.5679,5.5751,5.5812,5.5984,5.6085,5.6117,5.6183,5.6309,5.642,5.6432,5.6478,5.6531,5.6535,5.6287,5.6254,5.6222,5.618,5.6541,5.6541,5.6789,5.6792,5.6793]},{"header":{"parameterUnit":"m.s-1","parameterCategory":1,"la1":30.2991,"la2":30.254,"lo1":-89.0895,"lo2":-89.0444,"dy":0.0017,"dx":0.0017,"nx":28,"ny":28,"refTime":"2024-09-27T09:00:00:Z","depth":0,"parameterNumber":3,"parameterNumberName":"V-component_of_WINDS"},"data":[0,0,0,0,0,0,0,0,0,0,0,0,0,0,0,0,0,0,0,0,0,0,0,0,0,0,0,0,0,0,0,0,0,0,0,0,0,0,0,0,0,0,0,0,0,0,0,0,0,0,0,0,0,0,0,0,0,0,2.6074,2.6074,0,2.6084,2.6084,2.6084,2.6017,2.6015,2.6013,2.6011,2.6022,2.6024,2.6026,0,0,0,0,0,0,0,0,0,0,0,0,0,2.5997,2.5998,2.6074,2.6074,2.6074,2.6084,2.6084,2.6084,2.6017,2.6015,2.6012,2.601,2.6021,2.6024,2.6026,0,0,0,0,0,0,0,0,0,0,0,0,0,2.6021,2.5999,2.6074,2.6042,2.6039,2.6084,2.6084,2.6084,2.6018,2.6015,2.6012,2.6009,2.6021,2.6024,2.6027,2.6103,0,0,2.6036,2.6037,0,0,0,0,0,0,0,0,2.602,2.6024,2.6046,2.6044,2.6041,2.6046,2.6061,2.6091,2.6018,2.6026,2.6011,2.6008,2.6032,2.6034,2.6043,2.6104,2.6104,2.6036,2.6038,2.604,2.604,0,0,0,0,0,0,0,2.6018,2.6023,2.6078,2.6047,2.6044,2.6027,2.6027,2.6066,2.6045,2.6025,2.602,2.6022,2.603,2.604,2.6042,2.6104,2.6036,2.6039,2.6041,2.6042,2.6228,2.623,0,0,0,0,0,0,2.602,2.6022,2.6078,2.6078,2.6023,2.6031,2.6031,2.6047,2.6044,2.6041,2.6024,2.6019,2.6036,2.6039,2.6042,2.6131,2.604,2.6043,2.6044,2.6225,2.6228,2.6232,0,0,0,0,0,0,2.6019,2.6026,2.6077,2.6049,2.6054,2.6035,2.6054,2.6049,2.6058,2.6044,2.604,2.6038,2.6034,2.6038,2.6088,2.6131,2.6044,2.6047,2.6221,2.6226,2.623,2.631,0,0,0,0,0,0,2.6017,2.6026,2.6055,2.605,2.6056,2.6123,2.6057,2.6051,2.6064,2.6057,2.6056,2.6053,2.6032,2.6084,2.6091,2.6133,2.6049,2.6217,2.6223,2.6228,2.6303,2.6317,2.6328,0,0,0,0,0,2.6015,2.6077,2.6057,2.6064,2.6091,2.6126,2.6129,2.6103,2.6067,2.6096,2.6087,2.6053,2.6125,2.609,2.6097,2.6141,2.6214,2.6221,2.6228,2.6298,2.6314,2.6328,0,0,0,0,0,0,2.6088,2.6076,2.6053,2.6116,2.6122,2.6114,2.615,2.6121,2.6138,2.6131,2.6099,2.6099,2.6155,2.6153,2.6114,2.6214,2.6163,2.6172,2.6214,2.6229,2.6241,2.624,2.6052,0,0,0,0,0,2.6112,2.614,2.6128,2.6185,2.6189,2.6169,2.6183,2.6163,2.6168,2.6171,2.6165,2.6172,2.6195,2.6212,2.6233,2.6303,2.6301,2.6336,2.6349,2.6359,2.6367,2.6403,2.6418,2.6254,2.6254,2.6254,0,0,2.6161,2.6157,2.6178,2.62,2.6202,2.6232,2.6172,2.6207,2.6229,2.6176,2.6223,2.6219,2.6224,2.6284,2.631,2.6284,2.6412,2.6368,2.6376,2.6378,2.6411,2.6427,2.6441,2.6259,2.6258,2.6257,0,0,2.6265,2.6266,2.6313,2.6316,2.6321,2.6307,2.6318,2.6314,2.631,2.6356,2.6317,2.6343,2.6385,2.639,2.6398,2.6504,2.6473,2.6512,2.6576,2.6612,2.6625,2.6636,2.6673,2.6687,2.652,2.652,2.652,0,2.6325,2.637,2.6341,2.6378,2.6389,2.6342,2.6389,2.6394,2.6405,2.6414,2.6384,2.6436,2.6436,2.6496,2.6522,2.653,2.6542,2.6512,2.6625,2.6636,2.6646,2.6682,2.6696,2.6525,2.6524,2.6524,2.6523,0,2.6443,2.6474,2.6512,2.6524,2.6538,2.6581,2.6558,2.6577,2.6555,2.6544,2.6592,2.659,2.661,2.6623,2.6603,2.668,2.6664,2.6631,2.6579,2.6667,2.67,2.6713,2.6532,2.653,2.6529,2.6527,0,0,2.6595,2.6589,2.6604,2.6608,2.6609,2.6633,2.6673,2.6692,2.6708,2.6718,2.675,2.6787,2.6755,2.6765,2.6744,2.6775,2.6859,2.6738,2.6737,2.676,2.6944,2.6969,2.6986,2.6838,2.6841,2.6843,2.6944,0,2.6697,2.6764,2.6739,2.6809,2.6837,2.6792,2.6827,2.6831,2.6822,2.6845,2.6835,2.6861,2.6818,2.6823,2.6852,2.6843,2.6895,2.6835,2.6868,2.687,2.6868,2.7003,2.7029,2.7125,2.6956,2.6958,2.696,0,2.6824,2.6838,2.6911,2.6906,2.6917,2.6949,2.6964,2.6986,2.699,2.6982,2.6992,2.6964,2.7003,2.6951,2.7004,2.6963,2.6975,2.6973,2.6976,2.6978,2.692,2.7008,2.7155,2.7169,2.698,2.6978,2.6977,0,2.6927,2.6964,2.7012,2.7017,2.7014,2.7037,2.7036,2.7038,2.7051,2.7064,2.7072,2.709,2.71,2.7114,2.7092,2.7057,2.7148,2.7094,2.7142,2.7142,2.7163,2.7162,2.7313,2.7171,2.7171,2.7171,2.7171,0,2.7043,2.7089,2.7058,2.7088,2.7138,2.7108,2.7158,2.7153,2.7154,2.7182,2.7145,2.7171,2.7141,2.7164,2.7148,2.7194,2.7198,2.7192,2.7187,2.7195,2.7196,2.7203,2.7196,2.7175,2.7174,2.7173,2.7172,0,2.7167,2.7148,2.7197,2.7189,2.7188,2.7225,2.7219,2.7246,2.7234,2.7269,2.7276,2.7257,2.7283,2.7262,2.7288,2.7277,2.7337,2.7323,2.7336,2.7332,2.738,2.7376,2.7541,2.7561,2.7407,2.7408,2.7409,0,2.7242,2.7276,2.7272,2.7288,2.7289,2.7315,2.7328,2.73,2.7315,2.7322,2.7348,2.7371,2.7388,2.7431,2.742,2.7439,2.7425,2.7481,2.7428,2.7435,2.7425,2.7424,2.7427,2.7492,2.7494,2.7496,2.7497,0,2.7378,2.7366,2.7386,2.7403,2.7419,2.7431,2.744,2.7455,2.7427,2.7446,2.7472,2.7485,2.751,2.7533,2.7549,2.7548,2.7518,2.7514,2.7526,2.7535,2.7541,2.7538,2.7365,2.751,2.7509,2.7508,2.7507,2.7507,2.7479,2.7507,2.7508,2.7531,2.7535,2.7544,2.7569,2.756,2.7581,2.76,2.7582,2.7613,2.7616,2.7633,2.7636,2.766,2.7637,2.7654,2.7659,2.7663,2.767,2.7537,2.7663,2.7663,2.7662,2.7662,2.7662,0,2.7612,2.761,2.7632,2.7646,2.7664,2.7634,2.7642,2.766,2.7687,2.7692,2.7709,2.7739,2.7761,2.7751,2.7771,2.7792,2.7778,2.7797,2.7795,2.7796,2.769,2.7678,2.7808,2.7808,2.7808,2.7808,2.7808,2.7808,2.7683,2.7729,2.7718,2.7765,2.7763,2.7793,2.7801,2.7809,2.7812,2.7847,2.7865,2.7858,2.7858,2.7876,2.7895,2.7891,2.79,2.7924,2.7916,2.7818,2.7803,2.779,2.7778,2.7927,2.7927,2.802,2.8021,2.8021]}]]